Douglas, WY

5:21 AM MST on January 24, 2018 (GMT -0700)
Converse County

Weather History for KDGW - January, 2014

Change the Weather History Date:

Wednesday, January 22, 2014

  Actual Average Record
Temperature  
Mean Temperature 22 °F 25 °F  
Max Temperature 32 °F 39 °F 59 °F (2009)
Min Temperature 12 °F 12 °F -14 °F (2008)
Degree Days  
Heating Degree Days 43 40  
Month to date heating degree days 834 882  
Since 1 July heating degree days 3913 3971  
Cooling Degree Days 0 0  
Month to date cooling degree days 0 0  
Year to date cooling degree days 0 0  
Moisture  
Dew Point 21 °F    
Average Humidity 75    
Maximum Humidity 84    
Minimum Humidity 66    
Precipitation  
Precipitation 0.02 in 0.02 in 0.10 in (2012)
Month to date precipitation 0.21 0.23  
Year to date precipitation 0.21 0.23  
Sea Level Pressure  
Sea Level Pressure 30.22 in    
Wind  
Wind Speed 7 mph (North)    
Max Wind Speed 16 mph    
Max Gust Speed 20 mph    
Visibility 6 miles    
Events Snow    
T = Trace of Precipitation, MM = Missing Value Source: NWS Daily Summary

Daily Weather History Graph

Daily Weather History Graph

Search for Another Location

Airport or City:

Trip Planner

Search our weather history database for the weather conditions in past years. The results will help you decide how hot, cold, wet, or windy it might be!

Date:

Astronomy

Jan. 22, 2014 Rise Set
Actual Time 7:25 AM MST 5:01 PM MST
Civil Twilight 6:54 AM MST 5:32 PM MST
Nautical Twilight 6:19 AM MST 6:07 PM MST
Astronomical Twilight 5:46 AM MST 6:40 PM MST
Moon 11:47 PM MST (1/22) 10:17 AM MST (1/22)
Length of Visible Light 10h 38m
Length of Day
9h 36m
Waning Gibbous, 65% of the Moon is Illuminated
Jan 22
Waning Gibbous
Jan 23
Last Quarter
Jan 30
New
Feb 6
First Quarter
Feb 14
Full

Hourly Weather History & Observations

Time (MST) Temp. Windchill Dew Point Humidity Pressure Visibility Wind Dir Wind Speed Gust Speed Precip Events Conditions
12:53 AM 26.1 °F 17.6 °F 19.0 °F 75% 30.17 in 10.0 mi NW 8.1 mph - N/A   Partly Cloudy
1:53 AM 25.0 °F 16.3 °F 19.0 °F 78% 30.18 in 10.0 mi NW 8.1 mph - N/A   Clear
2:53 AM 25.0 °F 18.1 °F 19.9 °F 81% 30.19 in 10.0 mi North 5.8 mph - N/A   Partly Cloudy
3:53 AM 27.0 °F 20.5 °F 19.9 °F 75% 30.20 in 10.0 mi NW 5.8 mph - N/A   Overcast
4:53 AM 27.0 °F 20.5 °F 19.9 °F 75% 30.21 in 10.0 mi North 5.8 mph - N/A   Overcast
5:53 AM 27.0 °F 18.7 °F 19.9 °F 75% 30.23 in 10.0 mi NNW 8.1 mph - N/A   Partly Cloudy
6:53 AM 28.0 °F 21.7 °F 21.0 °F 75% 30.24 in 10.0 mi NW 5.8 mph - N/A   Overcast
7:53 AM 30.0 °F 25.2 °F 21.9 °F 72% 30.25 in 10.0 mi NW 4.6 mph - N/A   Overcast
8:48 AM 30.2 °F 21.9 °F 23.0 °F 75% 30.15 in 10.0 mi NW 9.2 mph - N/A   Overcast
8:53 AM 30.9 °F 23.5 °F 23.0 °F 72% 30.24 in 10.0 mi NW 8.1 mph - N/A   Overcast
9:38 AM 32.0 °F 23.6 °F 24.8 °F 75% 30.17 in 10.0 mi NNW 10.4 mph - N/A   Overcast
9:53 AM 32.0 °F 24.2 °F 23.0 °F 69% 30.25 in 9.0 mi North 9.2 mph - N/A   Overcast
10:23 AM 30.2 °F 22.6 °F 24.8 °F 80% 30.18 in 1.8 mi North 8.1 mph - 0.00 in Snow Light Snow
10:33 AM 30.2 °F 24.3 °F 26.6 °F 86% 30.18 in 1.0 mi North 5.8 mph - 0.00 in Snow Light Snow
10:41 AM 30.2 °F 22.6 °F 26.6 °F 86% 30.17 in 1.2 mi North 8.1 mph - 0.00 in Snow Light Snow
10:53 AM 28.9 °F 21.9 °F 25.0 °F 85% 30.27 in 1.5 mi North 6.9 mph - 0.00 in Snow Light Snow
11:03 AM 30.2 °F 24.3 °F 26.6 °F 86% 30.17 in 1.0 mi North 5.8 mph - 0.00 in Snow Light Snow
11:13 AM 28.4 °F 21.2 °F 26.6 °F 93% 30.17 in 0.8 mi North 6.9 mph - 0.00 in Snow Light Snow
11:15 AM 28.4 °F 21.2 °F 26.6 °F 93% 30.16 in 1.0 mi North 6.9 mph - 0.00 in Snow Light Snow
11:28 AM 28.4 °F 20.4 °F 24.8 °F 86% 30.16 in 1.5 mi NNW 8.1 mph - 0.00 in Snow Light Snow
11:38 AM 30.2 °F 22.6 °F 26.6 °F 86% 30.16 in 1.2 mi NNW 8.1 mph - 0.00 in Snow Light Snow
11:53 AM 30.0 °F 23.2 °F 25.0 °F 82% 30.25 in 1.5 mi North 6.9 mph - 0.00 in Snow Light Snow
12:05 PM 30.2 °F 21.3 °F 26.6 °F 86% 30.15 in 1.2 mi North 10.4 mph - 0.00 in Snow Light Snow
12:43 PM 28.4 °F 18.0 °F 24.8 °F 86% 30.13 in 2.5 mi NNE 12.7 mph 16.1 mph 0.01 in Snow Light Snow
12:49 PM 28.4 °F 19.1 °F 23.0 °F 80% 30.13 in 3.0 mi NNE 10.4 mph - 0.01 in Snow Light Snow
12:53 PM 28.9 °F 19.8 °F 23.0 °F 78% 30.24 in 4.0 mi North 10.4 mph - 0.01 in Snow Light Snow
1:08 PM 28.4 °F 21.2 °F 23.0 °F 80% 30.13 in 2.5 mi NNE 6.9 mph - 0.00 in Snow Light Snow
1:18 PM 28.4 °F 24.6 °F 23.0 °F 80% 30.13 in 1.2 mi NNE 3.5 mph - 0.00 in Snow Light Snow
1:25 PM 28.4 °F - 24.8 °F 86% 30.13 in 1.0 mi Calm Calm - 0.00 in Snow Light Snow
1:36 PM 28.4 °F 24.6 °F 24.8 °F 86% 30.13 in 0.8 mi NNE 3.5 mph - 0.00 in Snow Light Snow
1:47 PM 28.4 °F 20.4 °F 24.8 °F 86% 30.13 in 1.2 mi North 8.1 mph - 0.00 in Snow Light Snow
1:53 PM 28.9 °F 19.8 °F 21.0 °F 72% 30.23 in 3.0 mi NNW 10.4 mph 16.1 mph 0.01 in Snow Light Snow
2:03 PM 28.4 °F 19.7 °F 19.4 °F 69% 30.13 in 2.0 mi North 9.2 mph 19.6 mph 0.00 in Snow Light Snow
2:18 PM 28.4 °F 21.2 °F 21.2 °F 74% 30.13 in 1.2 mi North 6.9 mph - 0.00 in Snow Light Snow
2:26 PM 28.4 °F 20.4 °F 19.4 °F 69% 30.13 in 4.0 mi North 8.1 mph - 0.00 in Snow Light Snow
2:53 PM 28.0 °F - 19.0 °F 69% 30.24 in 9.0 mi Calm Calm - 0.00 in   Overcast
3:06 PM 28.4 °F 20.4 °F 19.4 °F 69% 30.13 in 2.5 mi North 8.1 mph - 0.00 in Snow Light Snow
3:14 PM 26.6 °F 22.6 °F 21.2 °F 80% 30.13 in 3.0 mi NW 3.5 mph - 0.00 in Snow Light Snow
3:53 PM 27.0 °F 21.6 °F 21.0 °F 78% 30.25 in 10.0 mi West 4.6 mph - 0.00 in   Overcast
4:53 PM 26.1 °F 17.6 °F 21.0 °F 81% 30.27 in 10.0 mi WNW 8.1 mph - N/A   Overcast
5:53 PM 25.0 °F 18.1 °F 19.9 °F 81% 30.29 in 10.0 mi NW 5.8 mph - N/A   Overcast
6:53 PM 24.1 °F 15.2 °F 17.1 °F 75% 30.32 in 10.0 mi ENE 8.1 mph - N/A   Overcast
7:17 PM 23.0 °F 11.1 °F 15.8 °F 74% 30.21 in 10.0 mi ENE 12.7 mph - N/A   Overcast
7:31 PM 21.2 °F 9.5 °F 15.8 °F 80% 30.22 in 10.0 mi ENE 11.5 mph - N/A   Overcast
7:53 PM 21.9 °F 11.7 °F 16.0 °F 78% 30.36 in 10.0 mi ENE 9.2 mph - N/A   Overcast
8:53 PM 19.0 °F 11.1 °F 12.9 °F 77% 30.40 in 10.0 mi Variable 5.8 mph - N/A   Clear
9:53 PM 17.1 °F - 12.0 °F 81% 30.43 in 10.0 mi Calm Calm - N/A   Mostly Cloudy
10:35 PM 14.0 °F 6.5 °F 10.4 °F 86% 30.31 in 10.0 mi SE 4.6 mph - N/A   Scattered Clouds
10:53 PM 12.9 °F 2.6 °F 9.0 °F 84% 30.48 in 10.0 mi ESE 6.9 mph - N/A   Clear
11:17 PM 15.8 °F 8.6 °F 10.4 °F 79% 30.33 in 10.0 mi East 4.6 mph - N/A   Mostly Cloudy
11:53 PM 16.0 °F 5.3 °F 10.9 °F 81% 30.49 in 10.0 mi ENE 8.1 mph - N/A   Overcast